Regional Weather Roundup
Issued by NWS State College, PA

Home | Current Version | Previous Version | Text Only | Print | Product List | Glossary On
Versions: 1 2 3 4 5 6 7 8 9 10 11 12 13 14 15 16 17 18 19 20 21 22 23 24 25 26 27 28 29 30 31 32 33 34 35 36 37 38 39 40 41 42 43 44 45 46 47 48 49 50
000
ASUS41 KCTP 040210
RWRCTP

REGIONAL WEATHER ROUNDUP
NATIONAL WEATHER SERVICE STATE COLLEGE PA
1000 PM EDT THU SEP 03 2015

Note: "fair" indicates few or no clouds below 12,000 feet with no
significant weather and/or obstructions to visibility.

* = STATION THAT DOES NOT REPORT PRECIPITATION /E.G. RAIN...SNOW...ETC/
    THUNDER OR FOG.

PAZ002>004-007>009-013>016-020>023-029>032-040300-
WESTERN PENNSYLVANIA

CITY           SKY/WX    TMP DP  RH WIND       PRES   REMARKS
ERIE           PTCLDY    73  68  84 SE6       29.96R
MEADVILLE      CLEAR     70  66  87 CALM      29.99R FOG
FRANKLIN*      CLEAR     68  63  83 NE6       30.03R
NEW CASTLE     FAIR      73  69  87 CALM      29.99R
BEAVER COUNTY  NOT AVBL
BUTLER*        CLOUDY    70  66  88 NE5       30.00R
PITTSBURGH INT CLOUDY    74  65  73 SW6       29.98R
PITTSBURGH     CLOUDY    74  63  68 SW3       29.97S
INDIANA*       PTCLDY    73  70  88 CALM      30.01S
LATROBE        CLEAR     73  68  83 CALM      29.99S
WASHINGTON CO* CLOUDY    68  66  94 S3        30.00R
$$

PAZ004>006-010>012-017>019-024>028-033>037-041-042-045-046-049>053-040300-
CENTRAL PENNSYLVANIA

CITY           SKY/WX    TMP DP  RH WIND       PRES   REMARKS
BRADFORD       MOCLDY    68  63  84 CALM      30.02S
DUBOIS         MOCLDY    69  61  75 CALM      30.00R
CLEARFIELD     MOCLDY    71  64  78 CALM      29.99S
JOHNSTOWN      MOCLDY    74  65  73 NW6       30.03S
ALTOONA        MOCLDY    72  66  81 CALM      29.99S
STATE COLLEGE  NOT AVBL
WILLIAMSPORT   PTCLDY    72  68  87 CALM      29.93R
SELINSGROVE    PTCLDY    71  69  93 CALM      29.92S FOG
FT INDIANTOWN  CLEAR     75  67  77 N1        29.91S
CAPITAL CITY   PTCLDY    78  67  68 CALM      29.90S
HARRISBURG     MOCLDY    81  66  60 CALM      29.90R
YORK           PTCLDY    70  67  90 CALM      29.92R
$$

PAZ038>040-043-044-047-048-054-055-060>062-067>071-040300-
EASTERN PENNSYLVANIA

CITY           SKY/WX    TMP DP  RH WIND       PRES   REMARKS
SCRANTON       MOCLDY    75  66  73 E5        29.95S
MOUNT POCONO   PTCLDY    71  64  78 N7        30.00R
ALLENTOWN      MOCLDY    75  66  73 CALM      29.91R
QUAKERTOWN*    CLOUDY    77  66  69 CALM      29.92S
READING        MOCLDY    78  67  68 W5        29.90S
LANCASTER      MOCLDY    80  66  62 N7        29.90S
COATESVILLE    PTCLDY    77  66  69 CALM      29.92F
POTTSTOWN      MOCLDY    75  73  93 CALM      29.92R THUNDER
BLUE BELL      CLOUDY    77  72  83 CALM      29.88S
DOYLESTOWN     CLOUDY    78  67  68 NE3       29.89S
WILLOW GROVE   NOT AVBL
NORTH PHILA    MOCLDY    83  65  54 CALM      29.90R
PHILADELPHIA   MOCLDY    83  69  62 S7        29.89R
$$


USA.gov is the U.S. government's official web portal to all federal, state and local government web resources and services.